Change the Weather History Date:

Sunday, March 23, 2014

  Actual Average Record
Temperature  
Mean Temperature 18 °F 34 °F  
Max Temperature 23 °F 45 °F 72 °F (1939)
Min Temperature 12 °F 23 °F -20 °F (1904)
Degree Days  
Heating Degree Days 47 31  
Month to date heating degree days 872 803  
Since 1 July heating degree days 7078 6863  
Cooling Degree Days 0 0  
Month to date cooling degree days 0 0  
Year to date cooling degree days 0 0  
Moisture  
Dew Point 12 °F    
Average Humidity 78    
Maximum Humidity 88    
Minimum Humidity 68    
Precipitation  
Precipitation 0.04 in 0.02 in 0.38 in (1961)
Month to date precipitation 0.34 0.35  
Year to date precipitation 1.67 0.76  
Snow  
Snow 0.00 in - - ()
Snow Depth 2.00 in    
Sea Level Pressure  
Sea Level Pressure 30.32 in    
Wind  
Wind Speed 10 mph (North)    
Max Wind Speed 21 mph    
Max Gust Speed 23 mph    
Visibility 5 miles    
Events Snow    
T = Trace of Precipitation, MM = Missing Value Source: NWS Daily Summary

Daily Weather History Graph

Daily Weather History Graph

Search for Another Location

Airport or City:

Trip Planner

Search our weather history database for the weather conditions in past years. The results will help you decide how hot, cold, wet, or windy it might be!

Date:

Astronomy

Mar. 23, 2014 Rise Set
Actual Time 7:25 AM MDT 7:46 PM MDT
Civil Twilight 6:54 AM MDT 8:18 PM MDT
Nautical Twilight 6:17 AM MDT 8:55 PM MDT
Astronomical Twilight 5:38 AM MDT 9:34 PM MDT
Moon 2:31 AM MDT (3/23) 11:47 AM MDT (3/23)
Length of Visible Light 13h 23m
Length of Day
12h 21m
Waning Gibbous, 54% of the Moon is Illuminated
Mar 23
Waning Gibbous
Mar 23
Last Quarter
Mar 30
New
Apr 7
First Quarter
Apr 15
Full

Hourly Weather History & Observations

Time (MDT) Temp. Windchill Dew Point Humidity Pressure Visibility Wind Dir Wind Speed Gust Speed Precip Events Conditions
1:56 AM 15.1 °F 4.2 °F 12.0 °F 88% 30.25 in 10.0 mi SE 8.1 mph - 0.00 in   Overcast
7:56 AM 15.1 °F 1.1 °F 12.0 °F 88% 30.30 in 10.0 mi NNW 12.7 mph - 0.00 in   Overcast
9:33 AM 17.1 °F 1.0 °F 12.0 °F 81% 30.16 in 2.5 mi NNW 18.4 mph - 0.00 in Snow Light Snow
9:56 AM 18.0 °F 2.6 °F 12.0 °F 78% 30.33 in 3.0 mi NNW 17.3 mph - 0.00 in Snow Light Snow
11:21 AM 19.0 °F 5.6 °F 12.0 °F 74% 30.18 in 3.0 mi North 13.8 mph - 0.00 in Snow Light Snow
12:56 PM 21.9 °F 9.2 °F 14.0 °F 72% 30.35 in 10.0 mi North 13.8 mph - N/A   Mostly Cloudy
1:56 PM 21.9 °F 11.7 °F 12.9 °F 68% 30.35 in 10.0 mi NNE 9.2 mph - N/A   Overcast
2:56 PM 21.9 °F 17.2 °F 12.9 °F 68% 30.35 in 10.0 mi Variable 3.5 mph - N/A   Overcast
3:56 PM 21.9 °F 13.4 °F 12.9 °F 68% 30.35 in 10.0 mi ENE 6.9 mph - N/A   Overcast
4:56 PM 21.9 °F 11.0 °F 14.0 °F 72% 30.36 in 10.0 mi NNE 10.4 mph - N/A   Overcast
5:56 PM 21.9 °F 10.4 °F 14.0 °F 72% 30.38 in 10.0 mi NNE 11.5 mph - N/A   Overcast
6:56 PM 19.0 °F 6.8 °F 12.9 °F 77% 30.40 in 8.0 mi NNE 11.5 mph - 0.00 in   Overcast
7:12 PM 19.0 °F 7.5 °F 12.9 °F 77% 30.23 in 9.0 mi North 10.4 mph - N/A   Overcast
7:56 PM 18.0 °F 5.4 °F 10.9 °F 74% 30.41 in 9.0 mi NNE 11.5 mph - 0.00 in   Overcast
8:12 PM 17.1 °F 2.5 °F 10.9 °F 77% 30.24 in 5.0 mi North 15.0 mph - 0.00 in Snow Light Snow
8:30 PM 17.1 °F 4.3 °F 12.0 °F 81% 30.25 in 3.0 mi North 11.5 mph - 0.00 in Snow Light Snow
8:37 PM 17.1 °F 5.0 °F 12.0 °F 81% 30.26 in 2.0 mi NNE 10.4 mph - 0.00 in Snow Light Snow
8:51 PM 17.6 °F 5.0 °F 12.2 °F 79% 30.26 in 1.2 mi North 11.5 mph - 0.00 in Snow Light Snow
8:56 PM 16.0 °F 2.9 °F 12.0 °F 84% 30.44 in 1.8 mi North 11.5 mph - 0.00 in Snow Light Snow
9:27 PM 16.0 °F 3.6 °F 12.0 °F 84% 30.28 in 2.5 mi North 10.4 mph - 0.00 in Snow Light Snow
9:53 PM 15.8 °F 2.7 °F 10.4 °F 79% 30.29 in 4.0 mi North 11.5 mph - 0.00 in Snow Light Snow
9:56 PM 16.0 °F 3.6 °F 12.0 °F 84% 30.46 in 5.0 mi North 10.4 mph - 0.00 in Snow Light Snow
10:07 PM 16.0 °F 4.4 °F 12.0 °F 84% 30.29 in 1.8 mi North 9.2 mph - 0.00 in Snow Light Snow
10:22 PM 16.0 °F 3.6 °F 12.0 °F 84% 30.30 in 1.2 mi North 10.4 mph - 0.01 in Snow Light Snow
10:36 PM 15.1 °F 2.5 °F 12.0 °F 88% 30.30 in 2.0 mi North 10.4 mph - 0.01 in Snow Light Snow
10:51 PM 15.8 °F 4.2 °F 12.2 °F 86% 30.30 in 3.0 mi North 9.2 mph - 0.01 in Snow Light Snow
10:52 PM 16.0 °F 4.4 °F 12.0 °F 84% 30.48 in 4.0 mi North 9.2 mph - 0.01 in Snow Light Snow
11:16 PM 16.0 °F 4.4 °F 12.0 °F 84% 30.31 in 2.5 mi NNW 9.2 mph - 0.00 in Snow Light Snow
11:30 PM 16.0 °F 4.4 °F 12.0 °F 84% 30.32 in 1.0 mi North 9.2 mph - 0.00 in Snow Light Snow
11:36 PM 16.0 °F 4.4 °F 12.0 °F 84% 30.32 in 0.8 mi NNW 9.2 mph - 0.00 in Snow Light Snow
11:51 PM 15.8 °F 4.2 °F 12.2 °F 86% 30.32 in 0.8 mi NNW 9.2 mph - 0.01 in Snow Light Snow
11:56 PM 16.0 °F 4.4 °F 12.0 °F 84% 30.49 in 1.0 mi NNW 9.2 mph - 0.01 in Snow Light Snow